Location: Azat
(46.0765°N, 1.7600°E)
Time: 10:14:01
(UTC+00:00)

SL-4 R/B - Pass Details

Date: 09 April 2020
Orbit: 428 x 666 km, 51.6° (Epoch: 04 June)

Event Time Altitude Azimuth Distance (km) Brightness Sun altitude
Rises 19:00:55 0° 250° (WSW) 2,404 6.2 -5.6°
Reaches altitude 10° 19:03:03 10° 253° (WSW) 1,527 5.3 -5.9°
Maximum altitude 19:06:26 65° 336° (NNW) 476 1.9 -6.5°
Drops below altitude 10° 19:09:50 10° 60° (ENE) 1,538 3.9 -7.0°
Enters shadow 19:11:41 - 63° (ENE) 2,296 4.8 -7.3°
